• In Belarus
  • List of Countries
  • For 7 days
  • Water Temperature
  • Satellite Maps
  • Weather Map
  • Weather Widgets
  • user-avatar
    Login

    Hourly Weather Shumen

    Today, 24 November, Friday

    Time Temperature Precipitation Wind Pressure Humidity
    00:00 +7°C° 0 mm 1 mps 734 mmHg 86%
    01:00 +5°C° 0 mm 0 mps 734 mmHg 86%
    02:00 +5°C° 0 mm 0 mps 734 mmHg 87%
    03:00 +5°C° 0 mm 0 mps 734 mmHg 87%
    04:00 +5°C° 0 mm 0 mps 733 mmHg 87%
    05:00 +5°C° 0 mm 0 mps 733 mmHg 87%
    06:00 +5°C° 0 mm 0 mps 733 mmHg 87%
    07:00 +5°C° 0 mm 0 mps 733 mmHg 86%
    08:00 +5°C° 0 mm 0 mps 733 mmHg 86%
    09:00 +6°C° 0 mm 0 mps 734 mmHg 79%
    10:00 +9°C° 0 mm 1 mps 734 mmHg 72%
    11:00 +11°C° 0 mm 1 mps 734 mmHg 65%
    12:00 +11°C° 0 mm 1 mps 734 mmHg 63%
    13:00 +12°C° 0 mm 1 mps 734 mmHg 60%
    14:00 +13°C° 0 mm 1 mps 734 mmHg 58%
    15:00 +12°C° 0 mm 1 mps 734 mmHg 62%
    16:00 +11°C° 0 mm 1 mps 734 mmHg 67%
    17:00 +10°C° 0 mm 1 mps 734 mmHg 72%
    18:00 +9°C° 0 mm 1 mps 734 mmHg 75%
    19:00 +9°C° 0 mm 1 mps 734 mmHg 78%
    20:00 +8°C° 0 mm 1 mps 734 mmHg 80%
    21:00 +8°C° 0 mm 1 mps 734 mmHg 82%
    22:00 +8°C° 0 mm 1 mps 735 mmHg 84%
    23:00 +7°C° 0 mm 1 mps 735 mmHg 86%

    Tomorrow, 25 November, Saturday

    Time Temperature Precipitation Wind Pressure Humidity
    00:00 +7°C° 0 mm 1 mps 735 mmHg 86%
    01:00 +7°C° 0 mm 1 mps 735 mmHg 87%
    02:00 +7°C° 0 mm 1 mps 735 mmHg 88%
    03:00 +7°C° 0 mm 1 mps 735 mmHg 89%
    04:00 +7°C° 0 mm 1 mps 735 mmHg 90%
    05:00 +6°C° 0 mm 1 mps 734 mmHg 91%
    06:00 +7°C° 0 mm 1 mps 734 mmHg 92%
    07:00 +7°C° 0 mm 1 mps 735 mmHg 93%
    08:00 +6°C° 0 mm 2 mps 735 mmHg 93%
    09:00 +7°C° 0 mm 2 mps 735 mmHg 87%
    10:00 +9°C° 0 mm 3 mps 735 mmHg 81%
    11:00 +11°C° 0 mm 4 mps 735 mmHg 75%
    12:00 +11°C° 0 mm 4 mps 735 mmHg 73%
    13:00 +11°C° 0 mm 4 mps 734 mmHg 71%
    14:00 +12°C° 0 mm 4 mps 734 mmHg 69%
    15:00 +11°C° 0 mm 4 mps 734 mmHg 73%
    16:00 +10°C° 0 mm 4 mps 733 mmHg 78%
    17:00 +8°C° 0 mm 4 mps 733 mmHg 83%
    18:00 +9°C° 0 mm 3 mps 733 mmHg 85%
    19:00 +8°C° 0 mm 3 mps 733 mmHg 88%
    20:00 +7°C° 0 mm 3 mps 733 mmHg 91%
    21:00 +7°C° 0 mm 3 mps 732 mmHg 92%
    22:00 +7°C° 0 mm 3 mps 732 mmHg 92%
    23:00 +7°C° 0 mm 3 mps 732 mmHg 93%

    Day after tomorrow, 26 November, Sunday

    Time Temperature Precipitation Wind Pressure Humidity
    00:00 +7°C° 0 mm 2 mps 732 mmHg 93%
    01:00 +6°C° 0 mm 2 mps 732 mmHg 93%
    02:00 +6°C° 0 mm 2 mps 731 mmHg 94%
    03:00 +6°C° 0 mm 2 mps 731 mmHg 94%
    04:00 +6°C° 0 mm 2 mps 731 mmHg 94%
    05:00 +6°C° 0 mm 2 mps 730 mmHg 94%
    06:00 +6°C° 0 mm 2 mps 730 mmHg 94%
    07:00 +6°C° 0 mm 2 mps 730 mmHg 94%
    08:00 +7°C° 0 mm 1 mps 730 mmHg 94%
    09:00 +7°C° 0 mm 2 mps 730 mmHg 87%
    10:00 +9°C° 0 mm 2 mps 730 mmHg 80%
    11:00 +10°C° 0 mm 2 mps 730 mmHg 73%
    12:00 +12°C° 0 mm 2 mps 730 mmHg 69%
    13:00 +13°C° 0 mm 2 mps 730 mmHg 65%
    14:00 +13°C° 0 mm 2 mps 729 mmHg 61%
    15:00 +12°C° 0 mm 2 mps 729 mmHg 66%
    16:00 +10°C° 0 mm 2 mps 729 mmHg 71%
    17:00 +10°C° 0 mm 1 mps 728 mmHg 76%
    18:00 +10°C° 0 mm 1 mps 728 mmHg 78%
    19:00 +10°C° 0 mm 1 mps 728 mmHg 80%
    20:00 +9°C° 0 mm 1 mps 728 mmHg 82%
    21:00 +9°C° 0 mm 1 mps 728 mmHg 84%
    22:00 +9°C° 0 mm 1 mps 728 mmHg 85%
    23:00 +9°C° 0 mm 1 mps 728 mmHg 87%

    27 November, Monday

    Time Temperature Precipitation Wind Pressure Humidity
    00:00 +9°C° 0 mm 1 mps 727 mmHg 88%
    01:00 +9°C° 0 mm 1 mps 727 mmHg 89%
    02:00 +9°C° 0 mm 1 mps 727 mmHg 90%
    03:00 +8°C° 0 mm 1 mps 727 mmHg 91%
    04:00 +8°C° 0 mm 1 mps 727 mmHg 92%
    05:00 +8°C° 0 mm 1 mps 726 mmHg 93%
    06:00 +8°C° 0 mm 1 mps 726 mmHg 93%
    07:00 +8°C° 0 mm 1 mps 727 mmHg 93%
    08:00 +8°C° 0 mm 1 mps 727 mmHg 94%
    09:00 +9°C° 0 mm 1 mps 727 mmHg 90%
    10:00 +10°C° 0 mm 1 mps 727 mmHg 86%
    11:00 +11°C° 0 mm 1 mps 727 mmHg 83%
    12:00 +10°C° 0.1 mm 2 mps 726 mmHg 82%
    13:00 +10°C° 0.1 mm 2 mps 726 mmHg 82%
    14:00 +10°C° 0.1 mm 3 mps 725 mmHg 81%
    15:00 +10°C° 0.5 mm 3 mps 725 mmHg 84%
    16:00 +10°C° 0.5 mm 4 mps 725 mmHg 87%
    17:00 +8°C° 0.5 mm 5 mps 725 mmHg 89%
    18:00 +8°C° 1.2 mm 5 mps 725 mmHg 90%
    19:00 +8°C° 1.2 mm 5 mps 725 mmHg 91%
    20:00 +7°C° 1.2 mm 5 mps 725 mmHg 91%
    21:00 +7°C° 1.9 mm 5 mps 725 mmHg 91%
    22:00 +7°C° 1.9 mm 5 mps 725 mmHg 92%
    23:00 +7°C° 1.9 mm 5 mps 725 mmHg 92%

    28 November, Tuesday

    Time Temperature Precipitation Wind Pressure Humidity
    00:00 +6°C° 2.5 mm 5 mps 725 mmHg 92%
    01:00 +6°C° 2.5 mm 5 mps 725 mmHg 92%
    02:00 +6°C° 2.5 mm 5 mps 725 mmHg 92%
    03:00 +6°C° 2.9 mm 5 mps 725 mmHg 92%
    04:00 +5°C° 2.9 mm 5 mps 725 mmHg 92%
    05:00 +4°C° 2.9 mm 6 mps 725 mmHg 93%
    06:00 +5°C° 2.2 mm 5 mps 725 mmHg 92%
    07:00 +3°C° 2.2 mm 5 mps 725 mmHg 92%
    08:00 +3°C° 2.2 mm 5 mps 725 mmHg 92%
    09:00 +3°C° 1.9 mm 6 mps 725 mmHg 92%
    10:00 +3°C° 1.9 mm 6 mps 725 mmHg 91%
    11:00 +2°C° 1.9 mm 6 mps 726 mmHg 91%
    12:00 +2°C° 2.3 mm 6 mps 726 mmHg 91%
    13:00 +2°C° 2.3 mm 7 mps 726 mmHg 91%
    14:00 +2°C° 2.3 mm 7 mps 726 mmHg 90%
    15:00 +2°C° 1.7 mm 7 mps 726 mmHg 90%
    16:00 +2°C° 1.7 mm 7 mps 726 mmHg 90%
    17:00 +2°C° 1.7 mm 7 mps 727 mmHg 90%
    18:00 +2°C° 1.2 mm 6 mps 727 mmHg 90%
    19:00 +2°C° 1.2 mm 6 mps 727 mmHg 90%
    20:00 +2°C° 1.2 mm 6 mps 728 mmHg 90%
    21:00 +2°C° 0.9 mm 6 mps 728 mmHg 90%
    22:00 +2°C° 0.9 mm 6 mps 728 mmHg 89%
    23:00 +1°C° 0.9 mm 5 mps 729 mmHg 89%

    29 November, Wednesday

    Time Temperature Precipitation Wind Pressure Humidity
    00:00 +1°C° 0.2 mm 5 mps 729 mmHg 88%
    01:00 +1°C° 0.2 mm 5 mps 729 mmHg 88%
    02:00 +1°C° 0.2 mm 5 mps 729 mmHg 88%
    03:00 0°C° 0 mm 5 mps 729 mmHg 88%
    04:00 0°C° 0 mm 4 mps 730 mmHg 88%
    05:00 0°C° 0 mm 4 mps 730 mmHg 88%
    06:00 0°C° 0 mm 4 mps 730 mmHg 89%
    07:00 0°C° 0 mm 3 mps 730 mmHg 89%
    08:00 0°C° 0 mm 3 mps 731 mmHg 89%
    09:00 +1°C° 0 mm 3 mps 731 mmHg 86%
    10:00 +2°C° 0 mm 3 mps 731 mmHg 82%
    11:00 +2°C° 0 mm 3 mps 732 mmHg 79%
    12:00 +3°C° 0 mm 3 mps 732 mmHg 77%
    13:00 +5°C° 0 mm 2 mps 731 mmHg 76%
    14:00 +5°C° 0 mm 2 mps 731 mmHg 75%
    15:00 +5°C° 0 mm 2 mps 731 mmHg 78%
    16:00 +5°C° 0 mm 1 mps 731 mmHg 81%
    17:00 +4°C° 0 mm 1 mps 731 mmHg 83%
    18:00 +4°C° 0 mm 1 mps 732 mmHg 85%
    19:00 +4°C° 0 mm 1 mps 732 mmHg 86%
    20:00 +4°C° 0 mm 1 mps 732 mmHg 87%
    21:00 +4°C° 0 mm 1 mps 732 mmHg 87%
    22:00 +3°C° 0 mm 1 mps 732 mmHg 88%
    23:00 +3°C° 0 mm 1 mps 732 mmHg 88%
    Show more